Tracking 21998 objects as of 1-Dec-2020
HD Live streaming from Space Station
objects crossing your sky now

ESSA 2 (OT-2)

Track ESSA 2 (OT-2) now!
10-day predictions
ESSA 2 (OT-2) is classified as:


NORAD ID: 2091
Int'l Code: 1966-016A
Perigee: 1,361.3 km
Apogee: 1,421.9 km
Inclination: 101.2 °
Period: 113.4 minutes
Semi major axis: 7762 km
RCS: 0.8236 m2 (medium)
Launch date: February 28, 1966
Source: United States (US)
Launch site: AIR FORCE EASTERN TEST RANGE (AFETR)
aabbcc
Your satellite tracking list
Your tracking list is empty




NASA's NSSDC Master Catalog

Two Line Element Set (TLE):
1  2091U 66016A   20336.54535500 -.00000032 +00000-0 +60955-4 0  9997
2  2091 101.2133 262.8398 0039076 043.3708 129.9415 12.69384115536851
Source of the keplerian elements: AFSPC